2023-060A (56370 NORAD) Tracking and Keplerian Element Data

This shows tracking and keplerian element data for the satellite.

Feedback or suggestion? Click here.




ElementValue
Catalog56370
Name2023-060A
Epoch Orbit2
Epoch Day123.89832454
Epoch Year2023
RAAN41.2905
Inclination0.057
Eccentricity0.0008953
Argument of Perigee137.097
Mean Anonmoly181.6286
Mean Motion1.04638801
Decay Rate-1.6E-07
L11 56370U 23060A 23123.89832454 -.00000016 00000+0 00000+0 0 9992
L22 56370 0.0570 41.2905 0008953 137.0970 181.6286 1.04638801 23



Live tracking and technical data element details for 2023-060A (NORAD 56370). 2023-060A can be tracked NOW for your location showing map with azimuth and elevation plus other details from your city location.







IsCatalogInMostPopularTable: catalog: 56370, numindb: 5
Update: records affected: 1



GetName: 56370 2023-060A

Hit Count: updated at: Wed, 07 Jun 2023 08:21:17 GMT